Location: Newark
(32.8014°N, 52.8711°E)
Time: 00:15:37
(UTC+00:00)

N. Korean satellite - Visible Passes

Search period start: 28 January 2020 00:00
Search period end: 07 February 2020 00:00
Orbit: 454 x 507 km, 97.2° (Epoch: 27 January)

Date Brightness Start Highest point End Pass type
(mag) Time Alt. Az. Time Alt. Az. Time Alt. Az.
28 Jan 9.6 01:23:42 10° NE 01:26:07 17° E 01:28:33 10° SE visible
28 Jan 7.8 02:56:36 10° NNW 02:59:24 21° WNW 03:02:13 10° WSW visible
29 Jan 6.8 02:30:32 10° N 02:34:01 48° WNW 02:37:33 10° SSW visible
29 Jan 10.2 14:37:06 10° WSW 14:38:19 11° W 14:39:32 10° WNW visible
30 Jan 6.9 02:04:57 10° NNE 02:08:35 69° E 02:12:13 10° S visible
31 Jan 8.7 01:39:51 10° NE 01:43:03 28° E 01:46:16 10° SSE visible
01 Feb 10.0 01:15:38 10° ENE 01:17:26 13° E 01:19:15 10° SE visible
01 Feb 7.5 02:47:40 10° NNW 02:50:48 28° WNW 02:53:58 10° SW visible
02 Feb 6.5 02:21:47 10° N 02:25:25 65° WNW 02:29:04 10° SSW visible
02 Feb 9.8 14:27:31 10° SW 14:29:35 15° W 14:31:40 10° WNW visible
03 Feb 7.5 01:56:21 10° NNE 01:59:55 51° E 02:03:32 10° S visible
04 Feb 9.2 01:31:26 10° NE 01:34:23 22° E 01:37:19 10° SSE visible
05 Feb 10.3 01:08:19 10° E 01:08:44 10° E 01:09:09 10° E visible
05 Feb 7.2 02:38:48 10° N 02:42:12 36° WNW 02:45:37 10° SW visible
06 Feb 6.5 02:13:04 10° N 02:16:46 87° WNW 02:20:28 10° SSW visible
